Vorticity
4 6 7 9 9 10 11 10 7 10 10 10 8 8 8 10 11 19 13 12 14 17 15 9 14 8 8 18 12 13 -13 8 6 29 6 0 6 5 10 3 1 4 5 3 5
4 4 8 7 6 9 10 11 9 9 9 8 10 12 11 10 8 9 16 7 12 12 14 11 -0 10 -5 15 16 13 -12 24 10 23 23 2 -5 3 7 4 3 6 3 4 3
5 3 3 2 9 22 11 12 10 10 10 10 7 8 14 11 4 6 6 21 14 2 9 -1 11 0 17 -6 19 14 9 -9 4 19 14 20 0 -3 9 7 2 2 3 3 8
5 2 1 5 18 13 9 7 11 13 10 9 8 1 10 5 18 -3 5 11 12 8 31 -35 12 11 12 11 13 14 2 -15 15 14 2 13 17 1 2 6 -3 8 10 15 7
6 6 1 3 10 9 14 11 8 6 5 2 2 6 15 8 5 12 16 11 11 17 15 21 1 14 8 5 14 9 22 7 8 4 -0 16 19 -3 12 4 1 8 8 3 5
10 7 1 3 7 7 13 18 10 17 15 5 11 11 21 16 12 8 38 7 9 14 10 6 19 3 7 16 11 20 11 5 -17 0 -0 5 28 -10 9 5 2 5 7 3 4
15 8 6 2 9 1 11 18 5 15 18 28 20 10 28 27 32 11 27 3 9 13 10 11 9 3 23 6 14 2 12 38 18 -7 15 25 -7 19 8 20 26 10 -2 4 7
15 14 7 2 7 7 2 21 16 8 18 8 -4 4 -7 10 18 33 2 -2 27 7 11 7 7 20 2 -4 25 7 31 1 26 4 9 17 13 1 14 -11 -7 -3 15 -4 2
13 11 13 8 8 -0 -0 4 5 3 2 0 17 20 5 5 6 15 46 5 21 13 5 4 7 20 14 8 9 6 31 3 23 6 5 15 14 4 5 -10 1 3 -6 -2 -1
14 9 17 9 2 8 4 0 5 -0 10 11 4 18 8 10 5 19 37 39 14 6 11 10 6 5 18 11 -4 12 13 13 -0 11 6 15 26 12 3 4 -1 -4 12 19 -5
12 16 7 14 11 -2 8 5 4 2 3 1 6 13 6 7 5 10 1 -2 57 16 12 15 4 -2 28 9 12 19 12 7 -14 26 13 16 17 18 14 -3 0 23 23 8 5
12 16 9 6 12 12 -0 -4 -1 6 9 3 5 9 12 7 2 16 10 8 18 31 26 17 40 54 2 21 28 -4 14 9 4 11 8 -1 17 20 12 7 13 -5 6 3 11
9 13 17 10 5 10 13 8 -1 2 -5 4 3 5 17 22 2 4 12 11 2 6 25 18 -19 -8 24 35 -10 -4 19 8 11 6 16 23 10 8 9 6 8 15 7 5 5
7 11 15 13 11 7 9 12 13 14 9 -6 4 -2 2 21 14 -1 -5 11 6 9 -11 7 11 22 26 8 13 15 22 -1 22 -5 -7 -2 31 2 14 2 7 9 9 7 6
8 9 12 17 11 8 8 7 11 8 10 7 9 6 12 15 15 16 18 12 14 7 14 12 13 16 -8 24 16 14 9 6 25 22 -3 -1 -3 28 9 12 12 6 6 7 8
9 6 8 12 13 10 9 11 8 16 2 8 6 10 16 13 8 26 5 9 11 19 2 5 5 20 14 -3 18 6 17 8 13 -10 -10 14 -33 36 17 2 4 7 8 6 4
10 9 8 11 13 12 10 9 16 13 9 2 4 6 0 9 7 17 3 12 4 -3 15 7 6 7 -5 14 15 9 8 7 -2 4 5 10 20 -32 22 22 15 11 6 2 2
10 8 6 8 9 12 14 18 12 4 7 5 4 11 11 1 6 11 9 1 10 8 2 9 7 -3 16 22 12 14 -20 4 14 8 18 23 17 -9 2 28 29 15 12 11 9
8 9 7 6 9 11 11 11 10 12 7 10 17 9 12 4 6 2 9 13 4 8 5 13 13 26 5 2 6 24 -8 -9 12 5 3 7 11 9 18 23 11 19 19 11 12
6 9 7 7 7 8 13 11 14 10 10 9 15 7 10 17 11 9 12 8 13 12 10 5 12 9 16 7 2 -15 27 5 9 6 5 23 12 -5 28 11 16 20 17 14 15
5 7 6 8 9 7 9 11 9 8 10 13 9 11 9 11 12 11 11 6 12 10 11 8 10 15 11 9 13 6 4 8 9 5 10 6 16 14 23 18 21 12 10 12 12
7 4 4 8 10 6 7 7 9 9 9 12 8 6 12 9 11 5 10 13 10 14 9 15 11 9 11 14 9 10 17 9 9 13 11 13 19 7 10 15 13 11 9 7 5
9 7 13 8 6 7 7 5 7 8 9 6 9 8 7 12 7 10 8 11 10 14 12 9 12 9 13 13 11 8 11 7 9 6 11 4 26 7 4 2 2 3 4 6 6
9 9 -1 9 15 4 7 11 6 9 9 8 7 7 8 6 7 5 7 8 14 9 9 11 9 10 10 11 10 6 6 8 5 7 12 4 34 -0 1 0 -1 1 4 7 6
7 13 8 -9 -7 5 8 -1 6 7 9 7 8 7 7 10 9 4 6 8 13 4 4 9 14 7 3 6 7 6 5 5 6 2 4 17 22 2 -4 -5 2 2 12 13 9
5 6 9 5 6 6 5 5 8 7 8 7 7 7 7 7 4 6 4 7 15 1 3 9 6 4 14 17 15 12 6 6 7 7 5 -2 7 -1 -1 1 15 14 6 3 0
3 6 8 7 8 7 5 9 7 7 12 13 13 9 11 7 7 8 4 5 3 6 6 11 8 2 15 9 -5 32 38 12 15 29 28 12 24 18 13 5 6 5 8 11 11
Height
3123 3119 3115 3112 3108 3103 3098 3094 3091 3088 3085 3083 3081 3079 3077 3075 3072 3070 3068 3069 3068 3069 3073 3075 3079 3082 3086 3090 3093 3098 3103 3104 3110 3116 3125 3134 3139 3144 3145 3148 3151 3155 3160 3163 3164
3123 3120 3116 3113 3108 3103 3098 3094 3091 3088 3085 3082 3080 3078 3076 3073 3071 3070 3069 3068 3067 3070 3072 3074 3078 3081 3084 3087 3091 3094 3098 3104 3112 3117 3126 3132 3137 3141 3144 3146 3150 3153 3157 3161 3163
3124 3121 3117 3113 3107 3101 3098 3094 3091 3089 3085 3081 3079 3077 3075 3072 3071 3070 3068 3066 3067 3068 3070 3071 3075 3079 3082 3085 3088 3092 3096 3104 3112 3117 3122 3127 3133 3137 3141 3144 3149 3154 3154 3159 3162
3125 3121 3118 3113 3107 3103 3099 3095 3092 3089 3085 3082 3079 3077 3073 3071 3071 3068 3065 3065 3065 3065 3065 3063 3071 3076 3080 3083 3086 3092 3096 3103 3110 3115 3120 3123 3127 3133 3136 3143 3148 3152 3155 3158 3161
3124 3122 3119 3115 3109 3105 3100 3095 3092 3089 3085 3082 3079 3075 3072 3069 3067 3066 3064 3062 3064 3063 3064 3067 3070 3075 3079 3082 3086 3089 3094 3101 3109 3112 3116 3119 3123 3128 3133 3141 3146 3149 3153 3156 3158
3124 3122 3120 3116 3111 3106 3101 3096 3094 3089 3086 3083 3080 3076 3071 3068 3065 3062 3060 3062 3063 3064 3067 3069 3071 3076 3079 3082 3086 3088 3093 3100 3103 3108 3112 3116 3119 3124 3131 3138 3143 3147 3151 3154 3157
3124 3122 3120 3117 3113 3108 3103 3098 3095 3091 3088 3084 3081 3076 3072 3068 3063 3061 3060 3061 3062 3064 3067 3070 3071 3074 3077 3082 3085 3089 3094 3096 3101 3106 3110 3113 3117 3119 3129 3136 3141 3144 3148 3153 3155
3124 3122 3119 3117 3114 3110 3106 3101 3098 3094 3090 3087 3083 3078 3074 3070 3066 3062 3061 3061 3061 3063 3066 3069 3072 3073 3077 3081 3084 3088 3092 3095 3099 3106 3109 3114 3115 3120 3127 3133 3137 3141 3147 3150 3152
3124 3121 3120 3117 3115 3112 3108 3104 3101 3097 3093 3089 3085 3080 3077 3074 3068 3064 3061 3062 3062 3065 3067 3070 3072 3074 3078 3080 3084 3087 3089 3093 3099 3103 3108 3110 3114 3120 3125 3130 3136 3139 3143 3147 3150
3125 3121 3119 3117 3115 3112 3109 3106 3103 3100 3097 3092 3088 3086 3081 3079 3073 3068 3065 3063 3063 3066 3068 3071 3073 3074 3076 3078 3080 3084 3087 3091 3096 3102 3105 3108 3113 3119 3124 3129 3134 3137 3140 3145 3149
3125 3122 3119 3117 3115 3113 3110 3108 3108 3104 3099 3096 3094 3089 3086 3082 3078 3074 3070 3067 3067 3068 3069 3071 3074 3073 3074 3078 3083 3087 3090 3092 3096 3100 3104 3107 3112 3118 3123 3127 3131 3134 3138 3144 3147
3126 3122 3119 3117 3115 3113 3111 3109 3106 3105 3102 3099 3095 3091 3089 3086 3083 3079 3076 3074 3072 3072 3070 3074 3070 3072 3077 3081 3084 3088 3090 3094 3098 3101 3104 3108 3111 3116 3121 3125 3130 3135 3138 3141 3143
3126 3123 3119 3117 3115 3113 3111 3108 3106 3104 3103 3100 3097 3094 3091 3089 3085 3083 3083 3080 3079 3077 3077 3076 3077 3078 3080 3081 3085 3088 3090 3094 3098 3101 3105 3109 3113 3115 3119 3123 3126 3130 3134 3136 3138
3126 3123 3120 3117 3116 3113 3111 3108 3105 3104 3103 3103 3098 3097 3094 3091 3090 3087 3085 3087 3085 3085 3083 3083 3081 3081 3083 3084 3087 3088 3091 3096 3098 3102 3105 3108 3113 3113 3116 3119 3123 3127 3130 3134 3137
3126 3123 3119 3116 3115 3112 3111 3108 3106 3105 3105 3104 3100 3098 3095 3094 3093 3090 3088 3088 3087 3088 3088 3087 3084 3085 3086 3087 3088 3090 3093 3097 3100 3103 3106 3110 3112 3112 3114 3117 3119 3124 3128 3133 3136
3126 3124 3120 3117 3114 3112 3110 3107 3107 3107 3104 3105 3103 3100 3097 3095 3093 3091 3090 3090 3090 3089 3088 3088 3087 3087 3087 3088 3089 3091 3094 3098 3102 3105 3107 3109 3112 3109 3111 3113 3119 3122 3126 3130 3132
3126 3123 3121 3118 3115 3112 3109 3108 3108 3105 3108 3106 3104 3102 3099 3096 3095 3095 3093 3091 3091 3092 3091 3091 3089 3089 3089 3090 3091 3093 3096 3101 3110 3111 3109 3108 3111 3110 3110 3112 3115 3119 3123 3126 3128
3126 3123 3121 3118 3115 3112 3109 3109 3107 3107 3105 3105 3104 3102 3100 3098 3098 3097 3095 3094 3093 3092 3091 3092 3093 3091 3089 3091 3093 3094 3096 3098 3106 3109 3106 3107 3107 3105 3108 3110 3111 3114 3118 3121 3124
3125 3123 3120 3118 3115 3112 3111 3108 3107 3106 3106 3105 3104 3102 3101 3100 3100 3098 3097 3096 3095 3094 3093 3092 3091 3091 3091 3093 3095 3095 3097 3098 3098 3101 3103 3104 3105 3105 3105 3107 3108 3111 3115 3118 3120
3126 3122 3119 3117 3115 3113 3112 3109 3107 3106 3105 3104 3103 3103 3101 3101 3101 3099 3097 3097 3095 3094 3093 3094 3093 3091 3092 3094 3095 3096 3097 3098 3097 3103 3105 3102 3102 3103 3105 3107 3108 3110 3113 3118 3119
3125 3121 3119 3117 3114 3113 3111 3109 3107 3106 3105 3105 3103 3102 3102 3101 3100 3099 3099 3099 3097 3095 3094 3094 3094 3095 3095 3093 3093 3095 3093 3094 3095 3095 3097 3105 3104 3104 3104 3105 3107 3110 3113 3115 3116
3123 3121 3118 3115 3115 3112 3110 3109 3108 3106 3105 3104 3103 3102 3101 3101 3100 3099 3099 3098 3097 3096 3095 3095 3094 3095 3094 3093 3094 3092 3092 3092 3093 3094 3094 3096 3102 3102 3104 3104 3106 3109 3110 3111 3113
3120 3118 3116 3114 3112 3111 3109 3108 3107 3106 3104 3103 3103 3102 3101 3101 3101 3099 3098 3098 3097 3096 3095 3095 3094 3094 3094 3096 3093 3093 3093 3093 3092 3093 3094 3097 3102 3102 3104 3105 3107 3108 3109 3110 3110
3117 3115 3114 3112 3110 3109 3108 3107 3105 3104 3104 3103 3102 3102 3101 3101 3100 3099 3098 3098 3097 3096 3095 3094 3094 3093 3094 3093 3093 3092 3092 3092 3092 3094 3096 3097 3098 3101 3102 3105 3106 3106 3106 3107 3108
3112 3111 3110 3108 3108 3106 3106 3105 3104 3103 3102 3101 3101 3101 3101 3100 3100 3099 3099 3097 3097 3097 3096 3095 3093 3092 3092 3091 3091 3090 3090 3091 3093 3095 3097 3098 3098 3099 3101 3101 3101 3101 3101 3102 3102
3107 3107 3105 3104 3103 3102 3102 3101 3101 3100 3100 3099 3099 3098 3099 3099 3099 3098 3098 3097 3097 3097 3096 3095 3093 3092 3091 3089 3089 3089 3089 3089 3091 3092 3093 3095 3096 3097 3097 3097 3097 3097 3098 3098 3098
3099 3100 3100 3098 3097 3097 3097 3097 3097 3096 3096 3096 3096 3095 3096 3096 3096 3096 3095 3095 3095 3095 3094 3094 3093 3092 3089 3088 3088 3087 3085 3086 3087 3086 3089 3090 3092 3092 3092 3092 3093 3093 3093 3092 3092